Location: Unspecified
(0.0000°N, 0.0000°E)
Time: 12:12:41
(UTC+00:00)

BEIDOU 3M6 - Visible Passes

Search period start: 20 July 2025 00:00
Search period end: 30 July 2025 00:00
Orbit: 21507 x 21548 km, 56.4° (Epoch: 18 July)

Date Brightness Start Highest point End Pass type
(mag) Time Alt. Az. Time Alt. Az. Time Alt. Az.
20 Jul ? 07:29:11 10° SSW 16:39:44 13° E 17:41:49 10° ESE visible
21 Jul ? 10:02:12 10° SW 18:29:55 44° E 20:55:33 10° SE visible
22 Jul ? 16:38:13 10° NNW 20:17:55 79° E 23:23:44 10° SSE visible
23 Jul ? 19:14:40 10° NNW 22:05:40 65° W 05:27:16 10° ENE visible
24 Jul ? 21:47:41 10° NW 23:54:01 32° W 08:41:02 10° NE visible
26 Jul ? 04:24:46 10° SSW 08:03:45 79° E 11:09:12 10° NNE visible
28 Jul ? 09:34:07 10° SW 18:01:44 44° E 20:27:27 10° SSE visible
29 Jul ? 16:10:10 10° NNW 19:49:43 79° E 22:55:38 10° SSE visible
